| time (UTC) | temp F | wind direction | speed MPH | gust MPH | rain 1hr in | rain 24hr in | rain mn in | humidity % | barometer mb |
| 20260903031623 | 58 | 0 | 0.0 | 0.0 | 0.00 | 0.00 | 0.00 | 64 | 1020.3 |
| 20260903031045 | 59 | 0 | 0.0 | 0.0 | 0.00 | 0.00 | 0.00 | 65 | 1020.2 |
| 20260903030545 | 59 | 0 | 0.0 | 0.0 | 0.00 | 0.00 | 0.00 | 63 | 1020.3 |
| 20260903025544 | 60 | 0 | 0.0 | 0.0 | 0.00 | 0.00 | 0.00 | 60 | 1020.2 |
| 20260903025047 | 61 | 0 | 0.0 | 2.0 | 0.00 | 0.00 | 0.00 | 60 | 1020.2 |
| 20260903024602 | 61 | 0 | 0.0 | 4.0 | 0.00 | 0.00 | 0.00 | 62 | 1020.2 |
| 20260903024045 | 62 | 0 | 0.0 | 4.0 | 0.00 | 0.00 | 0.00 | 65 | 1020.2 |
| 20260903023549 | 62 | 0 | 0.0 | 5.0 | 0.00 | 0.00 | 0.00 | 63 | 1020.2 |
| 20260903023101 | 63 | 0 | 1.0 | 6.0 | 0.00 | 0.00 | 0.00 | 63 | 1020.2 |
| 20260903022546 | 63 | 0 | 0.0 | 6.0 | 0.00 | 0.00 | 0.00 | 61 | 1020.1 |
| 20260903022045 | 63 | 0 | 1.0 | 6.0 | 0.00 | 0.00 | 0.00 | 61 | 1020.2 |
| 20260903021559 | 64 | 0 | 0.0 | 5.0 | 0.00 | 0.00 | 0.00 | 60 | 1020.2 |
| 20260903021045 | 64 | 0 | 1.0 | 5.0 | 0.00 | 0.00 | 0.00 | 59 | 1020.1 |
| 20260903020544 | 64 | 196 | 1.0 | 4.0 | 0.00 | 0.00 | 0.00 | 59 | 1020.2 |
| 20260903020059 | 65 | 0 | 0.0 | 4.0 | 0.00 | 0.00 | 0.00 | 57 | 1020.2 |
| 20260903015545 | 65 | 151 | 0.0 | 3.0 | 0.00 | 0.00 | 0.00 | 55 | 1020.1 |
| 20260903015043 | 65 | 151 | 0.0 | 1.0 | 0.00 | 0.00 | 0.00 | 54 | 1020.2 |
| 20260903014605 | 65 | 0 | 0.0 | 4.0 | 0.00 | 0.00 | 0.00 | 54 | 1020.2 |
| 20260903014044 | 66 | 0 | 0.0 | 5.0 | 0.00 | 0.00 | 0.00 | 53 | 1020.2 |
| 20260903013545 | 66 | 187 | 0.0 | 5.0 | 0.00 | 0.00 | 0.00 | 53 | 1020.2 |
| 20260903013059 | 66 | 216 | 0.0 | 5.0 | 0.00 | 0.00 | 0.00 | 52 | 1020.2 |
| 20260903012543 | 66 | 188 | 0.0 | 5.0 | 0.00 | 0.00 | 0.00 | 51 | 1020.3 |
| 20260903012043 | 67 | 192 | 1.0 | 5.0 | 0.00 | 0.00 | 0.00 | 50 | 1020.3 |
| 20260903011602 | 67 | 146 | 0.0 | 5.0 | 0.00 | 0.00 | 0.00 | 50 | 1020.3 |
| 20260903011045 | 67 | 0 | 0.0 | 7.0 | 0.00 | 0.00 | 0.00 | 49 | 1020.4 |
| 20260903010545 | 68 | 0 | 1.0 | 9.0 | 0.00 | 0.00 | 0.00 | 49 | 1020.3 |
| 20260903010106 | 68 | 0 | 0.0 | 9.0 | 0.00 | 0.00 | 0.00 | 49 | 1020.3 |
| 20260903005628 | 68 | 0 | 2.0 | 11.0 | 0.00 | 0.00 | 0.00 | 49 | 1020.3 |
| 20260903005545 | 68 | 0 | 2.0 | 11.0 | 0.00 | 0.00 | 0.00 | 49 | 1020.3 |
| 20260903005044 | 69 | 189 | 2.0 | 11.0 | 0.00 | 0.00 | 0.00 | 47 | 1020.3 |
| 20260903004601 | 69 | 158 | 0.0 | 10.0 | 0.00 | 0.00 | 0.00 | 46 | 1020.4 |
| 20260903004045 | 70 | 157 | 2.0 | 11.0 | 0.00 | 0.00 | 0.00 | 45 | 1020.3 |
| 20260903003548 | 70 | 155 | 2.0 | 11.0 | 0.00 | 0.00 | 0.00 | 43 | 1020.3 |
| 20260903003102 | 70 | 181 | 1.0 | 7.0 | 0.00 | 0.00 | 0.00 | 44 | 1020.3 |
| 20260903002547 | 71 | 198 | 2.0 | 7.0 | 0.00 | 0.00 | 0.00 | 43 | 1020.3 |
| 20260903002048 | 71 | 0 | 2.0 | 7.0 | 0.00 | 0.00 | 0.00 | 44 | 1020.2 |
| 20260903001611 | 71 | 0 | 2.0 | 8.0 | 0.00 | 0.00 | 0.00 | 41 | 1020.3 |
| 20260903001051 | 72 | 300 | 2.0 | 8.0 | 0.00 | 0.00 | 0.00 | 41 | 1020.4 |
| 20260903000619 | 72 | 163 | 2.0 | 8.0 | 0.00 | 0.00 | 0.00 | 38 | 1020.3 |
| 20260903000547 | 72 | 163 | 2.0 | 8.0 | 0.00 | 0.00 | 0.00 | 38 | 1020.3 |
| 20260903000103 | 72 | 107 | 2.0 | 9.0 | 0.00 | 0.00 | 0.00 | 39 | 1020.4 |
| 20260902235545 | 73 | 137 | 1.0 | 10.0 | 0.00 | 0.00 | 0.00 | 39 | 1020.3 |
| 20260902235047 | 73 | 54 | 3.0 | 10.0 | 0.00 | 0.00 | 0.00 | 39 | 1020.4 |
| 20260902234600 | 73 | 157 | 2.0 | 14.0 | 0.00 | 0.00 | 0.00 | 39 | 1020.4 |
| 20260902234049 | 73 | 151 | 2.0 | 15.0 | 0.00 | 0.00 | 0.00 | 39 | 1020.3 |
| 20260902233545 | 74 | 153 | 3.0 | 15.0 | 0.00 | 0.00 | 0.00 | 38 | 1020.4 |
| 20260902233103 | 74 | 173 | 1.0 | 13.0 | 0.00 | 0.00 | 0.00 | 38 | 1020.4 |
| 20260902232547 | 75 | 211 | 3.0 | 11.0 | 0.00 | 0.00 | 0.00 | 38 | 1020.5 |
| 20260902232045 | 75 | 167 | 4.0 | 11.0 | 0.00 | 0.00 | 0.00 | 39 | 1020.4 |
| 20260902231604 | 75 | 138 | 1.0 | 10.0 | 0.00 | 0.00 | 0.00 | 41 | 1020.3 |
| 20260902231045 | 75 | 171 | 3.0 | 10.0 | 0.00 | 0.00 | 0.00 | 40 | 1020.6 |
| 20260902230548 | 75 | 111 | 2.0 | 11.0 | 0.00 | 0.00 | 0.00 | 40 | 1020.5 |
| 20260902225545 | 75 | 237 | 3.0 | 8.0 | 0.00 | 0.00 | 0.00 | 40 | 1020.6 |
| 20260902225046 | 75 | 151 | 3.0 | 12.0 | 0.00 | 0.00 | 0.00 | 39 | 1020.8 |
| 20260902224611 | 76 | 214 | 3.0 | 12.0 | 0.00 | 0.00 | 0.00 | 38 | 1020.8 |
| 20260902224047 | 76 | 122 | 5.0 | 12.0 | 0.00 | 0.00 | 0.00 | 37 | 1020.7 |
| 20260902223548 | 77 | 189 | 1.0 | 12.0 | 0.00 | 0.00 | 0.00 | 38 | 1020.6 |
| 20260902223102 | 77 | 111 | 3.0 | 12.0 | 0.00 | 0.00 | 0.00 | 36 | 1020.6 |
| 20260902222551 | 78 | 141 | 2.0 | 12.0 | 0.00 | 0.00 | 0.00 | 35 | 1020.7 |
| 20260902222047 | 78 | 305 | 1.0 | 13.0 | 0.00 | 0.00 | 0.00 | 30 | 1020.6 |
| 20260902221609 | 77 | 118 | 3.0 | 13.0 | 0.00 | 0.00 | 0.00 | 29 | 1020.8 |
| 20260902221046 | 77 | 63 | 3.0 | 12.0 | 0.00 | 0.00 | 0.00 | 25 | 1020.8 |
| 20260902220544 | 77 | 161 | 3.0 | 12.0 | 0.00 | 0.00 | 0.00 | 25 | 1020.8 |
| 20260902220104 | 77 | 306 | 3.0 | 12.0 | 0.00 | 0.00 | 0.00 | 21 | 1020.9 |
| 20260902215547 | 78 | 96 | 2.0 | 12.0 | 0.00 | 0.00 | 0.00 | 21 | 1021.1 |
| 20260902215047 | 77 | 141 | 4.0 | 12.0 | 0.00 | 0.00 | 0.00 | 21 | 1021.0 |
| 20260902214607 | 77 | 167 | 2.0 | 9.0 | 0.00 | 0.00 | 0.00 | 19 | 1021.0 |
| 20260902214048 | 77 | 120 | 2.0 | 9.0 | 0.00 | 0.00 | 0.00 | 18 | 1021.1 |
| 20260902213551 | 77 | 126 | 3.0 | 9.0 | 0.00 | 0.00 | 0.00 | 19 | 1021.2 |
| 20260902213059 | 77 | 136 | 3.0 | 9.0 | 0.00 | 0.00 | 0.00 | 18 | 1021.3 |
| 20260902212547 | 77 | 157 | 3.0 | 10.0 | 0.00 | 0.00 | 0.00 | 18 | 1021.4 |
| 20260902212044 | 77 | 175 | 1.0 | 10.0 | 0.00 | 0.00 | 0.00 | 17 | 1021.6 |
| 20260902211617 | 77 | 227 | 3.0 | 10.0 | 0.00 | 0.00 | 0.00 | 18 | 1021.5 |
| 20260902211045 | 78 | 221 | 2.0 | 7.0 | 0.00 | 0.00 | 0.00 | 16 | 1021.7 |
| 20260902210545 | 78 | 225 | 1.0 | 7.0 | 0.00 | 0.00 | 0.00 | 20 | 1021.5 |
| 20260902210119 | 78 | 144 | 1.0 | 9.0 | 0.00 | 0.00 | 0.00 | 17 | 1021.6 |
| 20260902205547 | 78 | 19 | 2.0 | 9.0 | 0.00 | 0.00 | 0.00 | 16 | 1021.6 |
| 20260902205047 | 78 | 173 | 3.0 | 11.0 | 0.00 | 0.00 | 0.00 | 18 | 1021.4 |
| 20260902204603 | 77 | 201 | 2.0 | 11.0 | 0.00 | 0.00 | 0.00 | 19 | 1021.4 |
| 20260902204045 | 77 | 157 | 2.0 | 14.0 | 0.00 | 0.00 | 0.00 | 19 | 1021.4 |
| 20260902203545 | 77 | 150 | 3.0 | 14.0 | 0.00 | 0.00 | 0.00 | 18 | 1021.6 |
| 20260902203106 | 77 | 310 | 5.0 | 14.0 | 0.00 | 0.00 | 0.00 | 17 | 1021.6 |
| 20260902202546 | 77 | 184 | 3.0 | 10.0 | 0.00 | 0.00 | 0.00 | 17 | 1021.6 |
| 20260902202048 | 77 | 147 | 2.0 | 10.0 | 0.00 | 0.00 | 0.00 | 17 | 1021.7 |
| 20260902201613 | 77 | 136 | 2.0 | 9.0 | 0.00 | 0.00 | 0.00 | 18 | 1021.6 |
| 20260902201045 | 77 | 132 | 3.0 | 10.0 | 0.00 | 0.00 | 0.00 | 19 | 1021.7 |
| 20260902200546 | 77 | 184 | 2.0 | 10.0 | 0.00 | 0.00 | 0.00 | 19 | 1021.8 |
| 20260902200100 | 76 | 0 | 2.0 | 10.0 | 0.00 | 0.00 | 0.00 | 20 | 1021.8 |
| 20260902195545 | 76 | 287 | 3.0 | 14.0 | 0.00 | 0.00 | 0.00 | 21 | 1021.9 |
| 20260902195044 | 76 | 137 | 2.0 | 14.0 | 0.00 | 0.00 | 0.00 | 23 | 1021.9 |
| 20260902194559 | 76 | 279 | 3.0 | 9.0 | 0.00 | 0.00 | 0.00 | 23 | 1021.9 |
| 20260902194048 | 76 | 63 | 3.0 | 14.0 | 0.00 | 0.00 | 0.00 | 23 | 1021.9 |
| 20260902193546 | 76 | 145 | 1.0 | 14.0 | 0.00 | 0.00 | 0.00 | 23 | 1021.9 |
| 20260902193104 | 76 | 166 | 2.0 | 12.0 | 0.00 | 0.00 | 0.00 | 22 | 1022.0 |
| 20260902192546 | 75 | 0 | 3.0 | 12.0 | 0.00 | 0.00 | 0.00 | 20 | 1021.9 |
| 20260902192045 | 75 | 229 | 2.0 | 12.0 | 0.00 | 0.00 | 0.00 | 20 | 1022.0 |
| 20260902191605 | 75 | 57 | 1.0 | 12.0 | 0.00 | 0.00 | 0.00 | 22 | 1022.0 |
| 20260902191044 | 75 | 200 | 2.0 | 12.0 | 0.00 | 0.00 | 0.00 | 23 | 1021.9 |
| 20260902190546 | 74 | 178 | 3.0 | 10.0 | 0.00 | 0.00 | 0.00 | 23 | 1022.0 |
| 20260902190104 | 74 | 150 | 2.0 | 10.0 | 0.00 | 0.00 | 0.00 | 22 | 1022.0 |
| 20260902185542 | 74 | 250 | 3.0 | 9.0 | 0.00 | 0.00 | 0.00 | 21 | 1022.1 |
| 20260902185045 | 74 | 182 | 1.0 | 8.0 | 0.00 | 0.00 | 0.00 | 23 | 1022.0 |
| 20260902184600 | 73 | 159 | 1.0 | 13.0 | 0.00 | 0.00 | 0.00 | 21 | 1022.1 |
| 20260902184050 | 73 | 221 | 2.0 | 13.0 | 0.00 | 0.00 | 0.00 | 21 | 1022.2 |
| 20260902183548 | 73 | 192 | 3.0 | 11.0 | 0.00 | 0.00 | 0.00 | 20 | 1022.2 |
| 20260902183105 | 73 | 170 | 1.0 | 8.0 | 0.00 | 0.00 | 0.00 | 21 | 1022.1 |
| 20260902182544 | 72 | 159 | 2.0 | 8.0 | 0.00 | 0.00 | 0.00 | 20 | 1022.2 |
| 20260902182050 | 72 | 159 | 3.0 | 8.0 | 0.00 | 0.00 | 0.00 | 20 | 1022.3 |
| 20260902181606 | 72 | 0 | 1.0 | 11.0 | 0.00 | 0.00 | 0.00 | 22 | 1022.3 |
| 20260902181043 | 72 | 169 | 2.0 | 11.0 | 0.00 | 0.00 | 0.00 | 22 | 1022.3 |
| 20260902180545 | 71 | 194 | 3.0 | 13.0 | 0.00 | 0.00 | 0.00 | 20 | 1022.3 |
| 20260902180117 | 71 | 315 | 2.0 | 13.0 | 0.00 | 0.00 | 0.00 | 20 | 1022.2 |
| 20260902175547 | 71 | 176 | 3.0 | 8.0 | 0.00 | 0.00 | 0.00 | 20 | 1022.4 |
| 20260902175044 | 71 | 102 | 2.0 | 8.0 | 0.00 | 0.00 | 0.00 | 21 | 1022.3 |
| 20260902174604 | 71 | 153 | 2.0 | 7.0 | 0.00 | 0.00 | 0.00 | 22 | 1022.4 |
| 20260902174045 | 71 | 189 | 2.0 | 7.0 | 0.00 | 0.00 | 0.00 | 22 | 1022.2 |
| 20260902173546 | 70 | 269 | 1.0 | 11.0 | 0.00 | 0.00 | 0.00 | 21 | 1022.3 |
| 20260902173101 | 70 | 181 | 2.0 | 11.0 | 0.00 | 0.00 | 0.00 | 21 | 1022.3 |
| 20260902172545 | 70 | 203 | 3.0 | 8.0 | 0.00 | 0.00 | 0.00 | 21 | 1022.3 |
| 20260902172046 | 70 | 217 | 2.0 | 6.0 | 0.00 | 0.00 | 0.00 | 24 | 1022.2 |
| 20260902171601 | 70 | 182 | 1.0 | 6.0 | 0.00 | 0.00 | 0.00 | 23 | 1022.0 |
| 20260902171042 | 70 | 0 | 1.0 | 6.0 | 0.00 | 0.00 | 0.00 | 22 | 1022.0 |
| 20260902170545 | 70 | 0 | 1.0 | 6.0 | 0.00 | 0.00 | 0.00 | 22 | 1022.0 |
| 20260902170111 | 70 | 155 | 1.0 | 8.0 | 0.00 | 0.00 | 0.00 | 23 | 1022.1 |
| 20260902165546 | 69 | 0 | 1.0 | 8.0 | 0.00 | 0.00 | 0.00 | 23 | 1022.0 |
| 20260902165047 | 69 | 136 | 2.0 | 8.0 | 0.00 | 0.00 | 0.00 | 24 | 1022.0 |
| 20260902164601 | 69 | 209 | 1.0 | 10.0 | 0.00 | 0.00 | 0.00 | 24 | 1022.0 |
| 20260902164046 | 69 | 157 | 4.0 | 10.0 | 0.00 | 0.00 | 0.00 | 23 | 1022.0 |
| 20260902163545 | 68 | 0 | 1.0 | 7.0 | 0.00 | 0.00 | 0.00 | 24 | 1021.9 |
| 20260902163056 | 68 | 257 | 2.0 | 7.0 | 0.00 | 0.00 | 0.00 | 23 | 1021.9 |
| 20260902162545 | 67 | 169 | 1.0 | 8.0 | 0.00 | 0.00 | 0.00 | 24 | 1021.8 |
| 20260902162046 | 67 | 83 | 1.0 | 8.0 | 0.00 | 0.00 | 0.00 | 25 | 1021.8 |
| 20260902161605 | 67 | 0 | 0.0 | 4.0 | 0.00 | 0.00 | 0.00 | 25 | 1021.8 |
| 20260902161044 | 67 | 99 | 0.0 | 5.0 | 0.00 | 0.00 | 0.00 | 25 | 1021.8 |
| 20260902160545 | 66 | 155 | 0.0 | 6.0 | 0.00 | 0.00 | 0.00 | 26 | 1021.9 |
| 20260902160112 | 66 | 155 | 1.0 | 6.0 | 0.00 | 0.00 | 0.00 | 25 | 1021.7 |
| 20260902155543 | 65 | 192 | 1.0 | 6.0 | 0.00 | 0.00 | 0.00 | 26 | 1021.7 |
| 20260902155050 | 64 | 0 | 1.0 | 7.0 | 0.00 | 0.00 | 0.00 | 27 | 1021.7 |
| 20260902154559 | 64 | 155 | 1.0 | 7.0 | 0.00 | 0.00 | 0.00 | 28 | 1021.6 |
| 20260902154045 | 62 | 178 | 1.0 | 7.0 | 0.00 | 0.00 | 0.00 | 28 | 1021.6 |
| 20260902153545 | 61 | 151 | 0.0 | 5.0 | 0.00 | 0.00 | 0.00 | 30 | 1021.5 |
| 20260902153104 | 60 | 190 | 0.0 | 4.0 | 0.00 | 0.00 | 0.00 | 30 | 1021.5 |
| 20260902152542 | 59 | 72 | 0.0 | 4.0 | 0.00 | 0.00 | 0.00 | 33 | 1021.5 |
| 20260902152045 | 59 | 75 | 1.0 | 3.0 | 0.00 | 0.00 | 0.00 | 33 | 1021.4 |
| 20260902151601 | 58 | 55 | 0.0 | 3.0 | 0.00 | 0.00 | 0.00 | 32 | 1021.5 |
| 20260902151046 | 57 | 37 | 1.0 | 4.0 | 0.00 | 0.00 | 0.00 | 33 | 1021.5 |
| 20260902150544 | 57 | 0 | 0.0 | 4.0 | 0.00 | 0.00 | 0.00 | 34 | 1021.5 |
| 20260902150059 | 57 | 0 | 1.0 | 4.0 | 0.00 | 0.00 | 0.00 | 34 | 1021.5 |
| 20260902145546 | 56 | 0 | 0.0 | 2.0 | 0.00 | 0.00 | 0.00 | 33 | 1021.5 |
| 20260902145045 | 56 | 0 | 0.0 | 2.0 | 0.00 | 0.00 | 0.00 | 34 | 1021.4 |
| 20260902144606 | 56 | 0 | 0.0 | 3.0 | 0.00 | 0.00 | 0.00 | 34 | 1021.5 |
| 20260902144047 | 56 | 0 | 0.0 | 3.0 | 0.00 | 0.00 | 0.00 | 34 | 1021.5 |
| 20260902143542 | 56 | 0 | 0.0 | 3.0 | 0.00 | 0.00 | 0.00 | 34 | 1021.5 |
| 20260902143100 | 56 | 0 | 0.0 | 1.0 | 0.00 | 0.00 | 0.00 | 34 | 1021.5 |
| 20260902142545 | 56 | 0 | 0.0 | 2.0 | 0.00 | 0.00 | 0.00 | 34 | 1021.5 |
| 20260902142043 | 56 | 0 | 0.0 | 3.0 | 0.00 | 0.00 | 0.00 | 34 | 1021.4 |
| 20260902141602 | 55 | 0 | 0.0 | 3.0 | 0.00 | 0.00 | 0.00 | 34 | 1021.4 |
| 20260902141043 | 55 | 0 | 0.0 | 3.0 | 0.00 | 0.00 | 0.00 | 34 | 1021.4 |
| 20260902140544 | 55 | 0 | 0.0 | 2.0 | 0.00 | 0.00 | 0.00 | 34 | 1021.3 |
| 20260902135545 | 54 | 0 | 0.0 | 2.0 | 0.00 | 0.00 | 0.00 | 34 | 1021.1 |
| 20260902135044 | 54 | 70 | 0.0 | 1.0 | 0.00 | 0.00 | 0.00 | 34 | 1021.2 |
| 20260902134601 | 54 | 0 | 0.0 | 1.0 | 0.00 | 0.00 | 0.00 | 34 | 1021.1 |
| 20260902134044 | 54 | 0 | 0.0 | 1.0 | 0.00 | 0.00 | 0.00 | 33 | 1021.0 |
| 20260902133544 | 54 | 0 | 0.0 | 1.0 | 0.00 | 0.00 | 0.00 | 33 | 1021.0 |
| 20260902133100 | 54 | 0 | 0.0 | 1.0 | 0.00 | 0.00 | 0.00 | 32 | 1020.8 |
| 20260902132545 | 54 | 0 | 0.0 | 0.0 | 0.00 | 0.00 | 0.00 | 32 | 1020.8 |
| 20260902132045 | 54 | 0 | 0.0 | 0.0 | 0.00 | 0.00 | 0.00 | 31 | 1020.8 |
| 20260902131604 | 54 | 0 | 0.0 | 0.0 | 0.00 | 0.00 | 0.00 | 32 | 1020.8 |
| 20260902131047 | 54 | 0 | 0.0 | 0.0 | 0.00 | 0.00 | 0.00 | 32 | 1020.7 |
| 20260902130547 | 54 | 0 | 0.0 | 0.0 | 0.00 | 0.00 | 0.00 | 32 | 1020.7 |
| 20260902130106 | 54 | 0 | 0.0 | 0.0 | 0.00 | 0.00 | 0.00 | 33 | 1020.7 |
| 20260902125545 | 54 | 0 | 0.0 | 0.0 | 0.00 | 0.00 | 0.00 | 32 | 1020.7 |
| 20260902125045 | 54 | 0 | 0.0 | 0.0 | 0.00 | 0.00 | 0.00 | 33 | 1020.7 |
| 20260902124556 | 54 | 0 | 0.0 | 1.0 | 0.00 | 0.00 | 0.00 | 32 | 1020.8 |
| 20260902124047 | 54 | 0 | 0.0 | 1.0 | 0.00 | 0.00 | 0.00 | 31 | 1020.6 |
| 20260902123546 | 54 | 0 | 0.0 | 1.0 | 0.00 | 0.00 | 0.00 | 32 | 1020.8 |
| 20260902123059 | 54 | 0 | 0.0 | 1.0 | 0.00 | 0.00 | 0.00 | 32 | 1020.8 |
| 20260902122546 | 54 | 0 | 0.0 | 0.0 | 0.00 | 0.00 | 0.00 | 33 | 1020.8 |
| 20260902122044 | 55 | 0 | 0.0 | 0.0 | 0.00 | 0.00 | 0.00 | 34 | 1020.8 |
| 20260902121600 | 55 | 0 | 0.0 | 0.0 | 0.00 | 0.00 | 0.00 | 34 | 1020.8 |
| 20260902121045 | 55 | 0 | 0.0 | 0.0 | 0.00 | 0.00 | 0.00 | 35 | 1020.8 |
| 20260902120545 | 55 | 0 | 0.0 | 2.0 | 0.00 | 0.00 | 0.00 | 36 | 1020.7 |
| 20260902120059 | 55 | 0 | 0.0 | 2.0 | 0.00 | 0.00 | 0.00 | 37 | 1020.8 |
| 20260902115547 | 55 | 0 | 0.0 | 2.0 | 0.00 | 0.00 | 0.00 | 37 | 1020.8 |
| 20260902115044 | 55 | 0 | 0.0 | 1.0 | 0.00 | 0.00 | 0.00 | 37 | 1020.9 |
| 20260902114603 | 55 | 0 | 0.0 | 3.0 | 0.00 | 0.00 | 0.00 | 36 | 1020.8 |
| 20260902114044 | 55 | 0 | 0.0 | 3.0 | 0.00 | 0.00 | 0.00 | 36 | 1020.8 |
| 20260902113544 | 54 | 0 | 0.0 | 2.0 | 0.00 | 0.00 | 0.00 | 34 | 1020.8 |
| 20260902113102 | 54 | 0 | 0.0 | 2.0 | 0.00 | 0.00 | 0.00 | 33 | 1020.8 |
| 20260902112547 | 54 | 0 | 0.0 | 2.0 | 0.00 | 0.00 | 0.00 | 34 | 1020.8 |
| 20260902112047 | 54 | 92 | 0.0 | 1.0 | 0.00 | 0.00 | 0.00 | 33 | 1020.9 |
| 20260902111604 | 54 | 0 | 0.0 | 2.0 | 0.00 | 0.00 | 0.00 | 33 | 1020.8 |
| 20260902111048 | 54 | 0 | 0.0 | 2.0 | 0.00 | 0.00 | 0.00 | 33 | 1020.8 |
| 20260902110548 | 54 | 0 | 0.0 | 0.0 | 0.00 | 0.00 | 0.00 | 33 | 1020.9 |
| 20260902110104 | 54 | 0 | 0.0 | 0.0 | 0.00 | 0.00 | 0.00 | 34 | 1020.9 |
| 20260902105548 | 54 | 0 | 0.0 | 0.0 | 0.00 | 0.00 | 0.00 | 33 | 1021.1 |
| 20260902105044 | 55 | 0 | 0.0 | 0.0 | 0.00 | 0.00 | 0.00 | 34 | 1021.1 |
| 20260902104603 | 55 | 0 | 0.0 | 0.0 | 0.00 | 0.00 | 0.00 | 34 | 1021.1 |
| 20260902104045 | 55 | 0 | 0.0 | 0.0 | 0.00 | 0.00 | 0.00 | 34 | 1021.1 |
| 20260902103546 | 55 | 0 | 0.0 | 0.0 | 0.00 | 0.00 | 0.00 | 35 | 1021.2 |
| 20260902103103 | 55 | 0 | 0.0 | 0.0 | 0.00 | 0.00 | 0.00 | 35 | 1021.2 |
| 20260902102547 | 55 | 0 | 0.0 | 1.0 | 0.00 | 0.00 | 0.00 | 34 | 1021.3 |
| 20260902102044 | 55 | 0 | 0.0 | 1.0 | 0.00 | 0.00 | 0.00 | 35 | 1021.2 |
| 20260902101602 | 55 | 0 | 0.0 | 1.0 | 0.00 | 0.00 | 0.00 | 34 | 1021.3 |
| 20260902101045 | 55 | 0 | 0.0 | 1.0 | 0.00 | 0.00 | 0.00 | 34 | 1021.4 |
| 20260902100547 | 55 | 0 | 0.0 | 1.0 | 0.00 | 0.00 | 0.00 | 35 | 1021.4 |
| 20260902100110 | 55 | 0 | 0.0 | 1.0 | 0.00 | 0.00 | 0.00 | 35 | 1021.4 |
| 20260902095545 | 55 | 0 | 0.0 | 1.0 | 0.00 | 0.00 | 0.00 | 34 | 1021.4 |
| 20260902095047 | 55 | 0 | 0.0 | 1.0 | 0.00 | 0.00 | 0.00 | 34 | 1021.4 |
| 20260902094616 | 55 | 0 | 0.0 | 1.0 | 0.00 | 0.00 | 0.00 | 34 | 1021.4 |
| 20260902094047 | 54 | 0 | 0.0 | 1.0 | 0.00 | 0.00 | 0.00 | 34 | 1021.4 |
| 20260902093547 | 54 | 0 | 0.0 | 1.0 | 0.00 | 0.00 | 0.00 | 35 | 1021.5 |
| 20260902093100 | 54 | 0 | 0.0 | 1.0 | 0.00 | 0.00 | 0.00 | 35 | 1021.5 |
| 20260902092545 | 54 | 0 | 0.0 | 2.0 | 0.00 | 0.00 | 0.00 | 34 | 1021.4 |
| 20260902092047 | 54 | 0 | 0.0 | 2.0 | 0.00 | 0.00 | 0.00 | 35 | 1021.5 |
| 20260902091602 | 54 | 0 | 0.0 | 1.0 | 0.00 | 0.00 | 0.00 | 34 | 1021.4 |
| 20260902091049 | 54 | 115 | 0.0 | 1.0 | 0.00 | 0.00 | 0.00 | 35 | 1021.5 |
| 20260902090547 | 54 | 0 | 0.0 | 0.0 | 0.00 | 0.00 | 0.00 | 35 | 1021.5 |
| 20260902085549 | 54 | 0 | 0.0 | 2.0 | 0.00 | 0.00 | 0.00 | 35 | 1021.6 |
| 20260902085048 | 54 | 0 | 0.0 | 2.0 | 0.00 | 0.00 | 0.00 | 35 | 1021.7 |
| 20260902084606 | 54 | 0 | 0.0 | 1.0 | 0.00 | 0.00 | 0.00 | 35 | 1021.7 |
| 20260902084046 | 54 | 0 | 0.0 | 1.0 | 0.00 | 0.00 | 0.00 | 35 | 1021.7 |
| 20260902083548 | 54 | 0 | 0.0 | 1.0 | 0.00 | 0.00 | 0.00 | 34 | 1021.7 |
| 20260902083058 | 54 | 115 | 0.0 | 1.0 | 0.00 | 0.00 | 0.00 | 34 | 1021.6 |
| 20260902082546 | 54 | 0 | 0.0 | 1.0 | 0.00 | 0.00 | 0.00 | 34 | 1021.7 |
| 20260902082045 | 54 | 0 | 0.0 | 1.0 | 0.00 | 0.00 | 0.00 | 34 | 1021.8 |
| 20260902081602 | 54 | 0 | 0.0 | 1.0 | 0.00 | 0.00 | 0.00 | 34 | 1021.7 |
| 20260902081048 | 54 | 0 | 0.0 | 1.0 | 0.00 | 0.00 | 0.00 | 34 | 1021.7 |
| 20260902080547 | 54 | 0 | 0.0 | 1.0 | 0.00 | 0.00 | 0.00 | 34 | 1021.7 |
| 20260902080113 | 54 | 0 | 0.0 | 2.0 | 0.00 | 0.00 | 0.00 | 34 | 1021.6 |
| 20260902075549 | 54 | 0 | 0.0 | 2.0 | 0.00 | 0.00 | 0.00 | 34 | 1021.7 |
| 20260902075048 | 54 | 0 | 0.0 | 2.0 | 0.00 | 0.00 | 0.00 | 34 | 1021.7 |
| 20260902074600 | 54 | 0 | 0.0 | 2.0 | 0.00 | 0.00 | 0.00 | 34 | 1021.7 |
| 20260902074045 | 54 | 0 | 0.0 | 2.0 | 0.00 | 0.00 | 0.00 | 34 | 1021.7 |
| 20260902073547 | 54 | 0 | 0.0 | 1.0 | 0.00 | 0.00 | 0.00 | 33 | 1021.7 |
| 20260902073057 | 54 | 0 | 0.0 | 1.0 | 0.00 | 0.00 | 0.00 | 33 | 1021.7 |
| 20260902072547 | 54 | 0 | 0.0 | 1.0 | 0.00 | 0.00 | 0.00 | 33 | 1021.7 |
| 20260902072049 | 54 | 0 | 0.0 | 0.0 | 0.00 | 0.00 | 0.00 | 33 | 1021.6 |
| 20260902071603 | 54 | 0 | 0.0 | 1.0 | 0.00 | 0.00 | 0.00 | 33 | 1021.6 |
| 20260902071044 | 54 | 0 | 0.0 | 1.0 | 0.00 | 0.00 | 0.00 | 33 | 1021.6 |
| 20260902070545 | 54 | 0 | 0.0 | 1.0 | 0.00 | 0.00 | 0.00 | 32 | 1021.6 |
| 20260902070107 | 54 | 0 | 0.0 | 1.0 | 0.00 | 0.00 | 0.00 | 34 | 1021.6 |
| 20260902065545 | 54 | 0 | 0.0 | 1.0 | 0.00 | 0.00 | 0.00 | 33 | 1021.6 |
| 20260902065044 | 54 | 0 | 0.0 | 1.0 | 0.00 | 0.00 | 0.00 | 34 | 1021.7 |
| 20260902064611 | 54 | 0 | 0.0 | 1.0 | 0.00 | 0.00 | 0.00 | 32 | 1021.7 |
| 20260902064045 | 54 | 0 | 0.0 | 1.0 | 0.00 | 0.00 | 0.00 | 33 | 1021.6 |
| 20260902063545 | 54 | 0 | 0.0 | 1.0 | 0.00 | 0.00 | 0.00 | 33 | 1021.6 |
| 20260902063106 | 54 | 0 | 0.0 | 1.0 | 0.00 | 0.00 | 0.00 | 34 | 1021.6 |
| 20260902062545 | 54 | 0 | 0.0 | 1.0 | 0.00 | 0.00 | 0.00 | 35 | 1021.5 |
| 20260902062044 | 55 | 0 | 0.0 | 2.0 | 0.00 | 0.00 | 0.00 | 35 | 1021.5 |
| 20260902061604 | 55 | 0 | 0.0 | 2.0 | 0.00 | 0.00 | 0.00 | 35 | 1021.5 |
| 20260902061046 | 54 | 0 | 1.0 | 2.0 | 0.00 | 0.00 | 0.00 | 36 | 1021.3 |
| 20260902060544 | 55 | 0 | 0.0 | 2.0 | 0.00 | 0.00 | 0.00 | 36 | 1021.2 |
| 20260902060113 | 55 | 0 | 0.0 | 2.0 | 0.00 | 0.00 | 0.00 | 36 | 1021.1 |
| 20260902055543 | 55 | 0 | 0.0 | 2.0 | 0.00 | 0.00 | 0.00 | 36 | 1021.0 |
| 20260902055045 | 55 | 0 | 0.0 | 2.0 | 0.00 | 0.00 | 0.00 | 39 | 1021.1 |
| 20260902054600 | 55 | 0 | 0.0 | 1.0 | 0.00 | 0.00 | 0.00 | 41 | 1021.1 |
| 20260902054044 | 55 | 0 | 0.0 | 1.0 | 0.00 | 0.00 | 0.00 | 43 | 1021.1 |
| 20260902053544 | 55 | 0 | 0.0 | 1.0 | 0.00 | 0.00 | 0.00 | 44 | 1021.2 |
| 20260902053124 | 55 | 0 | 0.0 | 0.0 | 0.00 | 0.00 | 0.00 | 43 | 1021.3 |
| 20260902052546 | 55 | 0 | 0.0 | 0.0 | 0.00 | 0.00 | 0.00 | 43 | 1021.3 |
| 20260902052045 | 55 | 0 | 0.0 | 1.0 | 0.00 | 0.00 | 0.00 | 47 | 1021.2 |
| 20260902051606 | 55 | 0 | 0.0 | 1.0 | 0.00 | 0.00 | 0.00 | 49 | 1021.4 |
| 20260902051043 | 55 | 0 | 0.0 | 1.0 | 0.00 | 0.00 | 0.00 | 50 | 1021.3 |
| 20260902050545 | 55 | 0 | 0.0 | 0.0 | 0.00 | 0.00 | 0.00 | 50 | 1021.4 |
| 20260902050107 | 56 | 0 | 0.0 | 0.0 | 0.00 | 0.00 | 0.00 | 49 | 1021.3 |
| 20260902045545 | 56 | 0 | 0.0 | 0.0 | 0.00 | 0.00 | 0.00 | 49 | 1021.3 |
| 20260902045044 | 56 | 0 | 0.0 | 1.0 | 0.00 | 0.00 | 0.00 | 48 | 1021.3 |
| 20260902044601 | 56 | 0 | 0.0 | 1.0 | 0.00 | 0.00 | 0.00 | 48 | 1021.4 |
| 20260902044044 | 56 | 0 | 0.0 | 1.0 | 0.00 | 0.00 | 0.00 | 48 | 1021.3 |
| 20260902043544 | 56 | 0 | 0.0 | 1.0 | 0.00 | 0.00 | 0.00 | 49 | 1021.3 |
| 20260902043103 | 56 | 0 | 0.0 | 1.0 | 0.00 | 0.00 | 0.00 | 49 | 1021.2 |
| 20260902042542 | 57 | 0 | 0.0 | 1.0 | 0.00 | 0.00 | 0.00 | 49 | 1021.1 |
| 20260902042044 | 57 | 0 | 0.0 | 1.0 | 0.00 | 0.00 | 0.00 | 50 | 1021.0 |
| 20260902041600 | 57 | 0 | 0.0 | 1.0 | 0.00 | 0.00 | 0.00 | 50 | 1020.9 |
| 20260902041042 | 57 | 0 | 0.0 | 0.0 | 0.00 | 0.00 | 0.00 | 52 | 1020.9 |
| 20260902040544 | 58 | 0 | 0.0 | 0.0 | 0.00 | 0.00 | 0.00 | 51 | 1020.8 |
| 20260902035549 | 58 | 0 | 0.0 | 0.0 | 0.00 | 0.00 | 0.00 | 51 | 1020.9 |
| 20260902035046 | 59 | 0 | 0.0 | 0.0 | 0.00 | 0.00 | 0.00 | 52 | 1020.8 |
| 20260902034607 | 59 | 0 | 0.0 | 0.0 | 0.00 | 0.00 | 0.00 | 54 | 1020.6 |
| 20260902034043 | 59 | 0 | 0.0 | 0.0 | 0.00 | 0.00 | 0.00 | 54 | 1020.6 |
| 20260902033546 | 60 | 0 | 0.0 | 1.0 | 0.00 | 0.00 | 0.00 | 54 | 1020.5 |
| 20260902033107 | 60 | 0 | 0.0 | 2.0 | 0.00 | 0.00 | 0.00 | 53 | 1020.5 |
| 20260902032545 | 60 | 0 | 0.0 | 2.0 | 0.00 | 0.00 | 0.00 | 53 | 1020.4 |
| 20260902032045 | 61 | 124 | 0.0 | 2.0 | 0.00 | 0.00 | 0.00 | 53 | 1020.4 |